Home > Weather > Solingen > Past weeks

Flag for Germany Past Weather in Solingen, North Rhine-Westphalia, Germany — Yesterday and Last 2 Weeks

Now
59 °F

Passing clouds.


Feels Like: 59 °F
Forecast: 51 / 72 °F
Wind: 2 mph from North

Location: Duesseldorf

Current Time: Aug 29, 2016 at 11:52:46 PM

Latest Report: Aug 29, 2016 at 11:20 PM


Visibility: N/A

Pressure: 30.24 "Hg

Humidity: 88%

Dew Point: 55 °F

Location of SolingenLocation

Past Weather in Solingen — Graph

°F

Solingen Temperature Yesterday

Maximum temperature yesterday: 88 °F (at 11:50 AM)
Minimum temperature yesterday: 66 °F (at 11:50 PM)
Average temperature yesterday: 76 °F

High & Low Weather Summary for the Past Weeks

 TemperatureHumidityPressure
High91 °F (Aug 25, 3:20 PM)100% (Aug 15, 1:50 AM)30.33 "Hg (Aug 15, 1:50 AM)
Low50 °F (Aug 18, 5:20 AM)26% (Aug 25, 3:20 PM)29.77 "Hg (Aug 18, 2:50 PM)
Average70 °F68%30.03 "Hg
* Reported Aug 14 10:20 PM — Aug 29 10:20 PM, Solingen, Weather by CustomWeather, © 2016

Note: Actual official high and low records may vary slightly from our data, if they occured in-between our weather recording intervals... More about our weather records

Advertising

Solingen Weather History for the Previous 24 Hours

Scroll right to see more
 ConditionsComfort  
Time TempWeatherWind HumidityBarometerVisibility
10:20 PM
Mon, Aug 29
63 °FPassing clouds.3 mph83%30.21 "HgN/A
9:50 PM61 °FPassing clouds.5 mph88%30.21 "HgN/A
9:20 PM61 °FScattered clouds.2 mph88%30.18 "HgN/A
8:50 PM66 °FScattered clouds.5 mph68%30.18 "HgN/A
8:20 PM66 °FPassing clouds.6 mph68%30.15 "HgN/A
7:50 PM68 °FPassing clouds.6 mph69%30.15 "HgN/A
7:20 PM70 °FPassing clouds.7 mph64%30.15 "HgN/A
6:50 PM70 °FPassing clouds.7 mph64%30.15 "HgN/A
6:20 PM70 °FScattered clouds.7 mph64%30.15 "HgN/A
5:50 PM70 °FPartly sunny.3 mph69%30.15 "HgN/A
5:20 PM68 °FBroken clouds.6 mph73%30.15 "HgN/A
4:50 PM68 °FSprinkles. Broken clouds.10 mph73%30.12 "HgN/A
4:20 PM70 °FBroken clouds.7 mph73%30.12 "HgN/A
3:50 PM72 °FScattered clouds.6 mph61%30.12 "HgN/A
3:20 PM70 °FPartly sunny.5 mph78%30.12 "HgN/A
2:50 PM70 °FPartly sunny.5 mph73%30.12 "HgN/A
2:20 PM68 °FBroken clouds.2 mph78%30.12 "HgN/A
1:50 PM68 °FPartly sunny.3 mph83%30.12 "HgN/A
1:20 PM66 °FBroken clouds.3 mph88%30.12 "HgN/A
12:50 PM64 °FBroken clouds.3 mph94%30.09 "HgN/A
12:20 PM63 °FDrizzle. Broken clouds.2 mph94%30.09 "Hg3 mi
11:50 AM63 °FDrizzle. Broken clouds.6 mph100%30.09 "Hg3 mi
11:20 AM64 °FDrizzle. Broken clouds.8 mph88%30.09 "Hg2 mi
10:50 AM64 °FBroken clouds.6 mph88%30.09 "HgN/A
10:20 AM66 °FPartly sunny.10 mph78%30.07 "HgN/A
9:50 AM66 °FPartly sunny.7 mph78%30.07 "HgN/A
9:20 AM66 °FLight rain. Partly sunny.8 mph78%30.07 "HgN/A
8:50 AM64 °FLight rain. Partly sunny.9 mph83%30.07 "HgN/A
8:20 AM64 °FBroken clouds.10 mph83%30.04 "HgN/A
7:50 AM64 °FPartly sunny.10 mph83%30.04 "HgN/A
7:20 AM64 °FPassing clouds.7 mph78%30.04 "HgN/A
6:50 AM63 °FPassing clouds.9 mph83%30.04 "HgN/A
6:20 AM63 °FPassing clouds.8 mph83%30.01 "HgN/A
5:50 AM63 °FClear.8 mph83%30.01 "Hg10 mi
5:20 AM63 °FClear.10 mph83%30.01 "Hg10 mi
4:50 AM61 °FClear.9 mph88%30.01 "Hg10 mi
4:20 AM61 °FClear.8 mph83%30.01 "Hg10 mi
3:50 AM61 °FClear.9 mph83%30.01 "Hg10 mi
3:20 AM61 °FClear.9 mph83%30.01 "Hg10 mi
2:50 AM63 °FClear.10 mph83%30.01 "Hg10 mi
2:20 AM63 °FClear.9 mph83%30.01 "Hg10 mi
1:50 AM63 °FClear.8 mph77%30.01 "Hg10 mi
1:20 AM64 °FClear.7 mph78%30.01 "Hg10 mi
12:50 AM64 °FClear.8 mph78%30.01 "Hg10 mi
12:20 AM64 °FClear.7 mph78%30.01 "Hg10 mi
11:50 PM
Sun, Aug 28
66 °FClear.5 mph73%30.01 "Hg10 mi
11:20 PM68 °FClear.7 mph69%30.01 "Hg10 mi
Weather by CustomWeather, © 2016

See weather overviewHow to use our weather pages